Weather in Oyer

Russia / Republic of Buryatia     50°32′12″N   104°58′56″E
temp.,
°C
wind,
m/s
gust,
m/s
humid.,
%
clouds,
%
prec.,
mm/h
press.,
hPa
HPBL,
m
6 march, sat
sat623:00−18w119671 0.0 102720
02:00−17wsw228959 0.0 102720
05:00−15w2284100 0.0 102625
08:00−16w227669 0.0 102920
11:00−8wsw22730 0.0 1028158
14:00−4sw01730 0.0 1026268
17:00−3ene12855 0.0 1024131
20:00−10sse11864 0.0 102521
7 march, sun
sun723:00−12sw018833 0.0 102521
02:00−13w118859 0.0 102521
05:00−14w128563 0.0 102320
08:00−15w128235 0.0 102420
11:00−8w12770 0.0 1022173
14:00−4e11810 0.0 1019223
17:00−3ene11900 0.0 1018104
20:00−9s01941 0.0 101921
8 march, mon
mon823:00−9w118868 0.0 101921
02:00−10w228075 0.0 102021
05:00−11w228012 0.0 102021
08:00−12w22816 0.0 102321
11:00−5w12780 0.0 1022156
14:00−1wnw117912 0.0 1022207
17:00−1ene018418 0.0 102276
20:00−7ene22879 0.0 102621
9 march, tue
tue923:00−11ene11950 0.0 102621
02:00−12wsw119820 0.0 102521
05:00−12wsw119878 0.0 102421
08:00−11wsw119787 0.1 102321
11:00−6w128599 0.0 1021252
14:00−2wnw128199 0.0 1018263
17:00−1n118790 0.0 101863
20:00−6ne018595 0.0 102221
10 march, wed
wed1023:00−8w118121 0.0 102521
02:00−10w117810 0.0 102621
05:00−10wsw11780 0.0 102721
08:00−11w11800 0.0 102821
11:00−5ne00780 0.0 1026153
14:00−2ne12820 0.0 1023285
17:00−2ne11870 0.0 1021122
20:00−9ne01932 0.0 102221